Weather History for Toledo, OH

Change the Weather History Date:

Friday, November 23, 2012

  Actual Average Record
Temperature  
Mean Temperature 43 °F 38 °F  
Max Temperature 54 °F 46 °F 71 °F (1999)
Min Temperature 32 °F 31 °F 5 °F (1971)
Degree Days  
Heating Degree Days 22 27  
Month to date heating degree days 557 508  
Since 1 July heating degree days 1119 1034  
Cooling Degree Days 0 0  
Month to date cooling degree days 0 0  
Year to date cooling degree days 998 793  
Moisture  
Dew Point 33 °F    
Average Humidity 74    
Maximum Humidity 89    
Minimum Humidity 59    
Precipitation  
Precipitation 0.13 in 0.10 in 1.12 in (1979)
Month to date precipitation 0.99 2.17  
Year to date precipitation 28.19 30.87  
Snow  
Snow T in 0.10 in - ()
Month to date snowfall T 1.1  
Since 1 July snowfall T 1.3  
Since 1 September snowfall T 1.3  
Snow Depth 0.00 in    
Sea Level Pressure  
Sea Level Pressure 29.89 in    
Wind  
Wind Speed 19 mph (WSW)    
Max Wind Speed 31 mph    
Max Gust Speed 43 mph    
Visibility 9 miles    
Events Rain , Snow    
T = Trace of Precipitation, MM = Missing Value Source: NWS Daily Summary

Daily Weather History Graph

Daily Weather History Graph

Search for Another Location

Airport:

Trip Planner

Search our weather history database for the weather conditions in past years. The results will help you decide how hot, cold, wet, or windy it might be!

Date:

Astronomy

Nov. 23, 2012 Rise Set
Actual Time 7:34 AM EST 5:09 PM EST
Civil Twilight 7:03 AM EST 5:39 PM EST
Nautical Twilight 6:29 AM EST 6:13 PM EST
Astronomical Twilight 5:56 AM EST 6:46 PM EST
Moon 2:26 PM EST (11/23) 2:49 AM EST (11/23)
Length of Visible Light 10h 35m
Length of Day
9h 34m
Waxing Gibbous, 79% of the Moon is Illuminated
Nov 23
Waxing Gibbous
Nov 28
Full
Dec 6
Last Quarter
Dec 13
New
Dec 20
First Quarter

Hourly Weather History & Observations

Time (EST) Temp. Windchill Dew Point Humidity Pressure Visibility Wind Dir Wind Speed Gust Speed Precip Events Conditions
12:52 AM 54.0 °F - 39.9 °F 59% 29.83 in 10.0 mi SSW 13.8 mph 23.0 mph N/A   Partly Cloudy
1:52 AM 54.0 °F - 41.0 °F 62% 29.81 in 10.0 mi SW 12.7 mph 23.0 mph 0.00 in Rain Light Rain
2:52 AM 50.0 °F - 46.0 °F 86% 29.81 in 5.0 mi SW 15.0 mph - 0.04 in Rain Rain
3:12 AM 50.0 °F - 46.4 °F 87% 29.79 in 4.0 mi SW 15.0 mph 20.7 mph 0.04 in Rain Rain
3:45 AM 50.0 °F - 48.2 °F 94% 29.78 in 7.0 mi SW 13.8 mph - 0.09 in Rain Light Rain
3:52 AM 51.1 °F - 48.0 °F 89% 29.78 in 7.0 mi SW 13.8 mph - 0.09 in   Overcast
4:45 AM 51.8 °F - 48.2 °F 88% 29.77 in 7.0 mi SW 12.7 mph - N/A   Overcast
4:52 AM 51.1 °F - 48.0 °F 89% 29.78 in 7.0 mi SW 13.8 mph - N/A   Overcast
5:12 AM 51.8 °F - 48.2 °F 88% 29.77 in 7.0 mi SW 13.8 mph 24.2 mph N/A   Mostly Cloudy
5:52 AM 51.1 °F - 46.9 °F 86% 29.78 in 8.0 mi WSW 20.7 mph - N/A   Mostly Cloudy
6:52 AM 45.0 °F 37.4 °F 39.0 °F 80% 29.82 in 8.0 mi West 18.4 mph 29.9 mph N/A   Mostly Cloudy
7:52 AM 42.1 °F 33.3 °F 36.0 °F 79% 29.84 in 8.0 mi West 19.6 mph - N/A   Overcast
8:22 AM 39.2 °F 30.2 °F 32.0 °F 75% 29.84 in 10.0 mi West 17.3 mph - N/A   Scattered Clouds
8:29 AM 39.2 °F 30.5 °F 32.0 °F 75% 29.84 in 10.0 mi West 16.1 mph 26.5 mph N/A   Mostly Cloudy
8:52 AM 39.9 °F 29.5 °F 32.0 °F 73% 29.86 in 10.0 mi WSW 24.2 mph 28.8 mph N/A   Overcast
9:52 AM 39.0 °F 28.5 °F 30.0 °F 70% 29.86 in 10.0 mi WSW 23.0 mph 29.9 mph N/A   Overcast
10:52 AM 39.9 °F 28.4 °F 28.9 °F 65% 29.87 in 10.0 mi West 29.9 mph 38.0 mph N/A   Overcast
11:52 AM 39.0 °F 27.6 °F 28.0 °F 65% 29.85 in 10.0 mi WSW 27.6 mph 35.7 mph N/A   Overcast
12:10 PM 39.2 °F 27.4 °F 28.4 °F 65% 29.84 in 10.0 mi West 29.9 mph 38.0 mph N/A   Overcast
12:52 PM 37.9 °F 26.6 °F 27.0 °F 65% 29.86 in 10.0 mi West 25.3 mph 33.4 mph N/A   Overcast
1:52 PM 35.1 °F 23.0 °F 25.0 °F 67% 29.89 in 10.0 mi West 24.2 mph 36.8 mph 0.00 in   Overcast
2:34 PM 33.8 °F 20.5 °F 23.0 °F 65% 29.89 in 10.0 mi West 27.6 mph 40.3 mph 0.00 in   Overcast
2:52 PM 34.0 °F 21.8 °F 23.0 °F 64% 29.92 in 10.0 mi West 23.0 mph 36.8 mph 0.00 in   Overcast
3:52 PM 33.1 °F 21.5 °F 24.1 °F 70% 29.96 in 7.0 mi West 19.6 mph 27.6 mph 0.00 in Snow Light Snow
4:52 PM 32.0 °F 20.5 °F 24.1 °F 73% 29.99 in 10.0 mi West 18.4 mph 29.9 mph 0.00 in   Overcast
5:18 PM 32.0 °F 19.8 °F 23.0 °F 69% 29.99 in 9.0 mi West 20.7 mph 25.3 mph 0.00 in Snow Light Snow
5:52 PM 32.0 °F 20.8 °F 21.9 °F 66% 30.02 in 10.0 mi West 17.3 mph 25.3 mph 0.00 in   Overcast
6:52 PM 32.0 °F 20.1 °F 23.0 °F 69% 30.04 in 10.0 mi West 19.6 mph 25.3 mph N/A   Overcast
7:52 PM 32.0 °F 20.5 °F 21.9 °F 66% 30.05 in 10.0 mi West 18.4 mph 24.2 mph 0.00 in   Overcast
8:52 PM 32.0 °F 21.6 °F 21.9 °F 66% 30.06 in 10.0 mi West 15.0 mph 24.2 mph N/A   Overcast
9:52 PM 32.0 °F 20.8 °F 23.0 °F 69% 30.06 in 10.0 mi West 17.3 mph 24.2 mph N/A   Overcast
10:52 PM 32.0 °F 21.2 °F 23.0 °F 69% 30.06 in 10.0 mi West 16.1 mph - N/A   Overcast
11:52 PM 32.0 °F 21.2 °F 23.0 °F 69% 30.06 in 10.0 mi West 16.1 mph - N/A   Overcast